Location: Sungai Apap
(2.6167°N, 113.3833°E)
Time: 15:04:12
(UTC+00:00)

SL-8 R/B - Pass Details

Date: 25 May 2024
Orbit: 652 x 662 km, 48.4° (Epoch: 14 June)

Event Time Altitude Azimuth Distance (km) Brightness Sun altitude
Exits shadow 20:12:00 50° 75° (ENE) 835 4.4 -29.3°
Drops below altitude 10° 20:16:08 10° 128° (SE) 2,069 6.5 -28.4°
Sets 20:18:32 0° 132° (SE) 2,983 7.3 -27.8°
